Theta_e
336 343 349 353 354 354 354 354 354 353 354 355 354 353 353 353 353 353 353 353 353 354 353 352 350 348 347 349 349 348 348 347 348 347 346 345 343 344 346 347 346 342 347
341 345 347 351 353 353 353 353 353 353 354 355 355 354 354 353 353 353 353 352 352 351 350 350 348 346 345 344 346 346 345 344 345 345 344 344 343 343 343 346 346 343 345
341 344 346 349 352 352 352 352 352 352 353 354 355 354 354 353 353 353 352 352 351 350 350 348 345 344 343 343 343 344 343 343 342 342 342 338 338 342 343 344 346 344 346
342 344 346 346 351 351 351 351 351 352 352 353 353 354 353 353 353 352 351 351 350 349 349 346 344 342 341 341 343 343 342 341 339 339 339 340 342 346 345 344 343 344 344
341 343 345 346 350 351 351 351 351 351 351 352 352 353 352 352 351 351 350 349 349 347 347 345 342 341 340 340 340 340 340 339 338 340 340 339 339 343 345 345 343 343 344
340 342 343 346 350 350 350 350 351 351 351 351 352 352 352 351 350 349 348 348 347 347 344 342 340 339 338 339 338 338 338 335 334 336 337 339 339 343 343 343 343 343 343
337 340 343 345 348 349 349 350 350 350 351 350 350 350 351 350 349 348 347 346 345 343 340 337 335 335 335 337 336 334 329 326 331 332 331 332 335 339 338 338 338 340 340
337 340 343 339 342 345 347 347 348 349 348 349 348 349 349 348 347 347 346 344 341 338 335 333 330 329 329 330 329 326 321 322 324 321 319 323 334 333 331 331 332 334 336
339 340 341 343 342 337 340 341 343 345 346 346 346 346 345 344 344 343 341 341 337 335 332 330 327 324 323 322 322 319 320 320 312 315 316 317 330 327 326 325 325 326 327
338 339 340 343 342 342 341 334 336 338 340 339 340 338 336 337 336 335 333 335 335 332 329 327 324 323 320 317 316 316 316 315 308 309 311 316 325 323 322 321 321 321 322
333 337 340 339 341 340 339 333 330 332 333 333 332 329 329 333 330 328 327 330 331 330 326 325 322 319 316 315 314 313 310 302 307 307 309 321 321 320 320 319 319 320 321
327 332 338 338 339 339 337 333 334 333 334 333 332 330 329 327 324 323 322 324 326 325 324 322 319 314 306 299 300 307 300 301 304 305 308 318 317 318 318 319 320 320 320
326 333 336 338 339 337 334 333 333 334 332 330 329 327 323 321 320 319 319 317 316 315 315 312 309 305 301 298 299 299 299 299 300 302 311 315 315 316 318 320 320 320 319
326 330 334 338 335 335 334 333 331 330 330 329 327 325 321 317 316 314 312 311 309 307 305 302 300 301 300 300 300 299 299 299 298 299 306 313 313 315 320 320 321 320 319
326 328 333 335 334 333 332 330 329 328 328 327 326 322 320 315 314 313 311 309 306 305 302 299 300 300 299 300 300 300 299 298 298 298 299 310 312 318 321 322 323 323 324
327 329 333 333 332 331 331 329 328 327 326 326 323 319 317 315 313 312 310 308 305 303 301 300 300 299 299 300 300 300 299 299 299 299 298 302 311 317 319 321 321 323 325
326 328 330 332 331 330 330 328 327 326 326 325 321 317 316 314 312 310 308 306 302 301 302 300 300 299 298 299 298 299 299 299 299 299 299 298 304 315 317 319 319 319 319
322 326 329 330 329 329 328 328 327 325 325 324 320 316 315 313 310 307 305 303 301 300 300 299 299 297 297 296 295 296 297 298 298 298 298 299 300 307 313 314 314 316 317
321 324 326 329 326 326 326 326 325 324 323 322 320 316 313 312 308 306 304 302 300 299 299 299 296 297 295 295 295 294 295 295 296 298 297 298 300 302 303 310 309 310 313
317 323 325 325 324 325 325 323 322 321 321 321 319 317 312 311 308 306 303 301 301 299 297 297 297 296 295 295 297 296 294 295 295 294 296 298 298 300 300 298 298 303 309
315 320 322 324 324 323 320 317 318 317 317 317 318 317 312 309 307 306 304 301 300 299 298 297 296 295 294 293 293 293 293 294 294 294 294 294 297 299 298 298 298 297 298
309 319 320 322 322 322 320 318 317 317 316 317 316 313 312 307 306 305 304 302 300 298 297 297 296 294 294 293 291 291 289 291 293 294 294 295 295 297 297 298 297 297 297
305 316 319 320 321 321 320 318 315 315 314 312 309 309 309 307 306 306 305 303 301 301 298 297 297 295 292 293 294 293 288 288 290 292 293 293 294 294 295 296 296 296 297
300 313 319 320 320 321 319 317 315 312 310 311 310 310 308 308 306 305 305 303 302 301 300 298 298 295 293 293 292 294 291 292 288 287 290 291 292 294 293 292 293 295 295
298 307 312 317 319 320 317 318 316 315 314 313 311 309 308 306 305 304 304 303 301 301 300 299 296 295 293 292 291 290 289 288 289 288 285 287 290 286 287 291 289 291 294
301 302 305 309 316 317 316 316 315 315 312 310 309 307 307 305 304 304 304 303 302 300 300 299 298 297 295 292 291 290 289 289 287 286 286 286 286 289 286 289 289 289 290
Wind_Speed
8 16 25 23 23 21 21 19 17 15 15 16 17 16 14 14 14 15 17 16 15 15 17 17 16 14 13 13 12 12 13 14 12 13 13 13 14 14 18 14 11 9 13
14 19 23 23 22 21 20 19 17 16 16 16 19 18 16 16 16 16 16 15 15 16 16 16 16 14 13 12 12 11 11 10 10 10 11 12 12 14 14 13 11 10 12
12 15 16 23 23 20 20 19 18 17 17 16 19 18 18 17 17 18 16 15 14 16 17 17 16 15 13 12 10 10 9 8 8 8 10 5 7 13 14 12 11 12 12
16 15 16 16 20 21 20 19 19 17 16 16 18 19 19 18 18 18 17 16 16 18 19 16 16 15 14 12 10 9 7 8 7 5 5 5 7 12 13 13 12 10 11
12 15 16 19 20 21 20 19 19 19 17 16 18 20 20 19 18 17 17 16 17 18 18 16 16 16 14 12 10 8 7 7 5 7 9 6 7 11 14 13 11 11 9
12 14 17 21 21 21 20 19 19 19 18 18 19 21 21 20 19 18 18 17 18 18 17 16 15 16 15 12 11 8 7 6 5 8 9 10 9 13 14 13 13 12 10
12 12 16 20 20 20 20 19 19 19 19 19 20 20 20 21 19 19 19 19 18 18 17 17 16 15 15 13 11 8 8 8 6 8 8 9 8 14 11 10 10 11 12
13 11 15 16 17 20 19 18 19 19 19 19 21 22 21 21 21 22 20 21 20 19 18 17 15 15 14 12 10 9 8 9 9 8 6 6 11 10 9 10 10 9 9
11 13 12 15 16 17 16 16 16 17 18 18 20 22 23 22 22 21 20 20 22 21 18 17 16 15 14 12 10 9 10 13 8 6 7 4 9 8 8 8 8 7 7
9 11 12 12 12 13 12 15 15 16 17 16 16 15 16 18 18 18 17 20 21 20 18 17 16 15 14 12 11 10 9 13 8 6 5 4 8 7 7 7 5 6 6
5 10 12 12 10 11 11 9 11 16 14 15 14 16 14 11 14 12 12 17 18 18 18 17 16 15 13 11 10 9 9 5 7 4 3 7 8 6 6 5 4 5 5
7 7 9 14 11 11 8 8 9 8 10 11 13 12 9 11 10 9 10 15 16 16 17 16 16 15 9 4 4 7 4 6 5 5 3 7 6 5 5 4 4 4 4
6 6 10 13 13 12 9 7 5 5 7 9 15 12 10 8 8 8 6 5 5 7 6 8 8 4 5 5 4 4 5 6 4 4 5 8 5 5 4 3 3 4 4
8 8 10 13 13 12 9 8 7 7 6 9 12 14 10 7 9 7 7 5 5 3 5 4 4 5 6 7 6 6 6 5 4 3 4 7 6 5 4 2 4 5 4
13 9 12 14 14 11 13 8 8 7 7 8 10 14 10 9 9 7 7 6 5 5 5 4 5 5 6 6 6 6 6 6 6 3 3 8 6 6 4 4 5 6 7
15 14 13 13 14 14 11 12 9 8 8 9 8 10 13 10 9 8 8 7 5 5 5 5 5 5 4 5 6 6 6 5 6 5 4 3 7 7 4 5 3 7 7
13 15 15 14 15 16 15 13 10 8 10 9 8 12 11 12 11 9 7 7 5 5 7 6 5 4 5 3 5 4 5 5 5 6 5 3 4 6 4 7 5 5 4
11 15 14 13 14 16 15 13 11 11 9 9 10 9 12 13 12 9 8 7 6 5 5 5 5 4 5 5 3 3 3 3 4 4 4 4 3 3 5 7 6 4 4
8 12 12 14 16 14 13 12 12 15 11 10 10 11 13 12 12 10 8 7 7 5 5 7 3 5 4 4 5 3 3 3 3 2 3 4 4 4 3 5 6 4 4
9 10 14 12 13 13 10 10 9 10 10 9 11 11 15 12 13 11 8 8 8 7 5 4 6 2 4 5 5 4 3 2 2 2 3 2 3 4 4 3 3 2 3
10 13 13 14 15 11 9 9 10 11 10 10 9 13 16 14 14 12 9 10 9 10 10 8 5 6 2 4 5 3 3 1 2 2 2 2 3 4 5 4 2 1 1
12 17 17 17 16 14 11 9 5 8 8 11 9 10 12 14 16 13 13 11 11 8 9 8 6 4 3 6 5 4 3 3 2 1 2 3 4 3 3 3 4 4 2
15 16 17 17 19 17 16 9 6 7 5 6 7 8 11 15 16 17 15 12 11 10 10 11 10 8 5 4 4 6 3 5 3 1 1 2 4 2 3 4 4 4 4
18 14 17 16 17 17 17 15 16 13 10 7 10 11 11 14 14 12 14 14 13 9 11 10 9 6 5 8 0 1 2 5 5 1 2 2 2 3 4 3 3 3 4
12 14 13 16 17 16 17 16 14 13 10 7 10 12 13 12 13 13 14 15 14 11 11 12 10 8 5 5 5 4 1 2 2 4 3 3 2 2 3 4 4 3 3
7 5 8 13 17 17 17 18 18 17 13 10 12 11 11 11 11 14 14 14 14 13 12 12 12 13 10 5 5 5 5 5 4 4 3 2 3 3 3 3 3 3 3
Wind_Direction
183 168 168 167 158 157 158 160 159 157 154 157 155 150 147 140 133 129 128 128 132 134 137 131 123 115 106 96 97 92 89 91 90 92 90 91 86 79 71 91 76 73 75
142 161 169 162 158 159 160 157 157 158 156 159 160 156 154 149 143 137 135 135 137 138 134 121 117 116 113 106 100 98 102 104 97 102 99 92 86 85 80 78 80 78 80
141 158 165 161 158 160 160 158 157 161 162 163 165 159 155 152 148 144 142 141 140 139 139 128 128 120 121 119 121 112 112 105 105 105 101 100 91 89 86 80 76 79 78
148 155 160 166 161 158 160 160 159 164 165 163 165 160 156 154 152 149 144 141 144 143 134 132 130 125 126 128 122 118 122 109 109 109 121 107 97 94 89 84 77 74 73
151 159 161 160 165 159 161 162 162 162 166 162 165 161 157 155 151 147 142 141 144 142 130 134 132 130 127 124 121 121 110 98 76 93 77 86 92 85 81 79 75 71 69
155 164 160 160 163 162 162 163 164 163 165 161 163 159 156 153 148 145 141 138 140 131 130 130 131 126 121 120 116 108 90 57 67 97 81 68 75 80 69 71 72 70 62
157 163 165 160 161 162 165 167 167 166 164 162 158 160 156 148 144 141 138 135 127 128 134 132 130 123 119 117 112 99 63 36 89 84 86 74 71 77 71 72 62 59 58
156 153 163 159 159 162 165 167 172 170 169 166 161 158 153 147 145 141 141 133 133 135 135 133 127 123 119 117 112 98 70 59 86 82 72 71 72 76 78 74 74 71 61
145 151 164 168 165 160 166 166 175 171 168 166 162 159 151 145 145 140 136 136 138 138 138 134 128 125 119 116 107 90 71 87 88 86 81 68 94 94 81 72 68 68 63
141 148 159 168 165 163 171 169 168 173 171 172 162 150 142 137 131 131 136 141 137 138 139 136 130 126 120 113 106 83 71 85 87 83 82 80 102 98 85 72 63 63 64
138 151 161 154 168 160 167 175 174 165 150 132 134 125 135 133 124 132 141 133 135 139 139 133 133 123 118 112 100 75 81 83 94 91 86 90 106 98 83 73 64 62 69
177 173 170 151 171 162 165 161 148 161 143 141 135 133 137 129 130 122 115 126 133 136 136 137 131 124 111 103 86 79 89 97 95 94 88 93 102 97 80 63 63 72 80
181 174 175 165 163 163 160 150 147 152 144 141 134 131 129 122 130 121 121 116 123 121 133 131 125 118 127 119 102 107 99 95 102 100 99 94 91 85 69 57 76 80 90
177 184 164 166 159 165 157 159 156 153 155 144 143 135 140 139 133 133 126 125 118 119 124 126 129 133 121 125 125 115 108 109 120 110 112 96 83 63 58 99 96 88 96
184 176 178 169 168 162 163 154 157 163 155 151 153 139 147 144 138 140 134 136 140 139 140 145 138 129 116 114 116 119 117 115 123 121 123 114 94 65 55 97 95 95 85
183 184 174 172 168 163 168 163 160 153 147 151 139 145 146 144 140 150 146 147 151 156 148 143 138 133 129 121 118 126 126 114 122 142 135 127 108 77 51 92 79 76 90
190 182 174 171 167 170 163 162 154 157 155 155 147 148 146 143 148 152 155 154 162 154 141 131 129 120 119 111 123 125 125 130 130 134 138 141 118 99 65 92 82 71 86
179 186 177 170 180 176 165 165 162 162 161 165 150 148 154 143 146 151 153 157 152 148 142 141 140 131 134 136 135 149 135 127 142 140 136 142 146 128 109 118 100 77 71
189 178 178 175 170 182 171 166 165 163 168 164 158 159 158 153 152 152 159 158 153 143 151 149 142 137 145 146 144 139 134 137 168 143 158 134 147 148 146 138 114 92 85
180 179 170 175 173 178 171 170 169 169 170 167 169 168 162 161 158 155 155 156 155 144 149 143 148 143 142 152 125 115 114 137 144 164 177 145 145 126 144 140 118 118 108
192 177 174 166 173 167 178 167 172 169 167 168 178 173 170 163 159 160 165 161 163 167 165 167 140 146 130 143 106 51 25 39 139 173 162 152 145 132 143 148 145 142 40
206 192 181 176 170 172 175 180 168 175 178 169 180 167 172 165 160 165 167 175 173 160 163 168 153 135 135 181 135 115 160 325 326 235 132 156 174 152 151 141 147 146 114
206 193 189 180 175 176 175 169 141 163 160 177 168 170 175 177 175 173 171 169 174 171 178 175 172 164 147 212 179 143 133 209 149 326 261 195 180 177 175 170 168 149 136
211 191 182 185 181 181 175 173 172 175 188 191 181 178 178 184 182 177 170 168 171 174 180 183 180 175 139 173 90 176 84 143 156 163 317 272 217 196 190 204 182 179 137
199 186 179 174 177 183 177 185 182 187 186 163 177 178 182 179 180 177 176 173 175 182 185 181 174 169 163 152 162 143 124 57 97 131 175 232 297 250 218 192 177 184 164
167 157 160 159 176 182 184 184 190 190 179 167 172 178 182 181 181 183 182 181 181 181 183 186 182 184 183 161 173 169 164 163 186 149 127 166 192 241 207 183 173 181 176